Flag for Germany Weather past 2 weeks in Freising, Bavaria, Germany

Now
67 °F

Light rain. Overcast.


Feels Like: 67 °F
Forecast: 52 / 68 °F
Wind: 3 mph from Northwest

Location: Muenchen Flughafen

Current Time: Aug 29, 2014 at 2:22:20 PM

Latest Report: Aug 29, 2014 at 2:00 PM


Visibility: 25 mi

Pressure: 30.05 "Hg

Humidity: 76%

Dew point: 59 °F

Location of FreisingLocation

Historic Weather in Freising — Graph

°F

Freising temperature yesterday

Maximum temperature yesterday: 71 °F (at 6:00 PM)
Minimum temperature yesterday: 44 °F (at 4:00 AM)
Average temperature yesterday: 57 °F

Past Weeks' High & Low Weather Summary

 TemperatureHumidityPressure
High71 °F (Aug 17, 4:00 PM)100% (Aug 28, 2:00 AM)30.17 "Hg (Aug 28, 2:00 AM)
Low42 °F (Aug 25, 6:00 AM)39% (Aug 17, 4:00 PM)29.70 "Hg (Aug 26, 7:00 PM)
Average58 °F75%29.99 "Hg
* Reported Aug 14 1:00 PM — Aug 29 1:00 PM, Freising, Weather by CustomWeather, © 2014

Note: Actual official high and low records may vary slightly from our data, if they occured in-between our weather recording intervals... More about our weather records

Advertising

Freising weather history for previous 24 hours

 ConditionsComfort  
Time TempWeatherWind HumidityBarometerVisibility
1:00 PM
Aug 29
69 °FOvercast.3 mph71%30.04 "Hg31 mi
12:00 PM70 °FOvercast.2 mph67%30.02 "Hg31 mi
11:00 AM68 °FOvercast.2 mph70%30.03 "Hg31 mi
10:00 AM65 °FOvercast.2 mph77%30.05 "Hg28 mi
9:00 AM64 °FPartly sunny.2 mph78%30.04 "Hg28 mi
8:00 AM55 °FPartly sunny.1 mph92%30.07 "Hg25 mi
7:00 AM50 °FFog.1 mph100%30.09 "Hg19 mi
6:00 AM55 °FFog.1 mph94%30.07 "Hg25 mi
5:00 AM50 °FPassing clouds.1 mph99%30.09 "Hg19 mi
4:00 AM52 °FCool.1 mph98%30.09 "Hg5 mi
3:00 AM52 °FFog.1 mph98%30.09 "Hg19 mi
2:00 AM53 °FPassing clouds.1 mph98%30.10 "Hg25 mi
1:00 AM53 °FPassing clouds.1 mph96%30.10 "Hg25 mi
12:00 AM54 °FPassing clouds.1 mph95%30.09 "Hg25 mi
11:00 PM
Aug 28
57 °FPassing clouds.1 mph88%30.08 "Hg25 mi
10:00 PM57 °FPassing clouds.1 mph89%30.08 "Hg25 mi
9:00 PM57 °FPassing clouds.1 mph88%30.06 "Hg25 mi
8:00 PM65 °FPartly sunny.1 mph64%30.03 "Hg47 mi
7:00 PM69 °FPartly sunny.2 mph58%30.02 "Hg31 mi
6:00 PM71 °FPassing clouds.2 mph51%30.02 "Hg31 mi
5:00 PM71 °FScattered clouds.1 mph52%30.03 "Hg31 mi
4:00 PM71 °FScattered clouds.1 mph52%30.03 "Hg31 mi
3:00 PM70 °FPassing clouds.1 mph58%30.04 "Hg31 mi
2:00 PM68 °FScattered clouds.2 mph58%30.06 "Hg31 mi
Weather by CustomWeather, © 2014

See weather overviewHow to use our weather pages